Regional Weather Roundup
Issued by NWS

Home | Current Version | Previous Version | Graphics & Text | Print | Product List | Glossary Off
Versions: 1 2 3 4 5 6 7 8 9 10 11 12 13 14 15 16 17 18 19 20 21 22 23 24 25 26 27 28 29 30 31 32 33 34 35 36 37 38 39 40 41 42 43 44 45 46 47 48 49 50

000
ASUS43 KMKX 212100
RWRWI

WISCONSIN REGIONAL WEATHER ROUNDUP
NATIONAL WEATHER SERVICE MILWAUKEE/SULLIVAN WI
300 PM CST TUE NOV 21 2017

NOTE: "FAIR" INDICATES FEW OR NO CLOUDS BELOW 12,000 FEET WITH NO
SIGNIFICANT WEATHER AND/OR OBSTRUCTIONS TO VISIBILITY.

WIZ001-002-006>008-014>016-023>028-212200-
NORTHWEST WISCONSIN

CITY           SKY/WX    TMP DP  RH WIND       PRES   REMARKS
SUPERIOR ARPT  SUNNY     27   9  46 NW13      30.13R WCI  16
ASHLAND        PTSUNNY   26  10  50 NW15G22   30.09R WCI  14
HAYWARD        SUNNY     26   7  44 N9G22     30.08R WCI  17
SIREN          SUNNY     29   8  41 N14       30.11R WCI  18
CUMBERLAND     SUNNY     28   9  43 NW17G24   30.08R WCI  16
RICE LAKE      SUNNY     28  11  47 W14G22    30.09R WCI  17
CHETEK         SUNNY     28  11  48 NW9G18    30.07R WCI  19
LADYSMITH      SUNNY     28  11  49 NW14      30.07R WCI  16
EAU CLAIRE     NOT AVBL
MENOMONIE      SUNNY     29  12  48 NW15G24   30.09R WCI  18
NEW RICHMOND   NOT AVBL
OSCEOLA        SUNNY     30  11  45 NW14G21   30.17R WCI  19
$$

WIZ003>005-009-010-017-018-212200-
NORTH CENTRAL WISCONSIN

CITY           SKY/WX    TMP DP  RH WIND       PRES   REMARKS
MANITOWISH WTR LGT SNOW  19  15  84 NW10G17   29.97R WCI   7
ARBOR VITAE    LGT SNOW  22  15  75 NW14G20   29.96R WCI   9
WOODRUFF       LGT SNOW  22  15  75 NW14G20   29.96R WCI   9
RHINELANDER    FLURRIES  21  14  74 NW10G20   29.97R WCI  10
EAGLE RIVER    FLURRIES  20  11  67 NW16G29   29.95R WCI   6
LAND O LAKES   LGT SNOW  20  13  73 N12G20    29.95R WCI   8
PHILLIPS       CLOUDY    23  11  60 NW12G17   30.00R WCI  11
TOMAHAWK       FLURRIES  23  12  64 NW16G25   29.98R WCI   9
MEDFORD        CLOUDY    24  11  58 NW16G24   29.99R WCI  11
MERRILL        CLOUDY    25  13  60 N17G24    29.99R WCI  11
$$

WIZ029-030-035-036-043>047-212200-
CENTRAL WISCONSIN

CITY           SKY/WX    TMP DP  RH WIND       PRES   REMARKS
WAUSAU         CLOUDY    26  14  60 NW13G24   29.98R WCI  15
MOSINEE        NOT AVBL
MARSHFIELD     PTSUNNY   26  11  52 NW17      30.00R WCI  13
STEVENS POINT  PTSUNNY   27  11  51 NW17G24   29.99R WCI  14
WAUPACA        PTSUNNY   32  11  42 NW15G22   29.98R WCI  22
WAUTOMA        PTSUNNY   29  13  51 MISG      30.01
WISC RAPIDS    PTSUNNY   29  13  51 N15G28    30.03R WCI  18
CAMP DOUGLAS   MOSUNNY   30  12  47 NW14G22   30.04R WCI  20
$$

WIZ011>013-019>022-031-037>040-048>050-212200-
NORTHEAST WISCONSIN

CITY           SKY/WX    TMP DP  RH WIND       PRES   REMARKS
ANTIGO         FLURRIES  24  14  67 NW17G28   29.94R WCI  10
SHAWANO        CLOUDY    32  15  49 NW13G21   29.96R WCI  22
OCONTO         CLOUDY    30  14  50 NW10G25   29.92R WCI  21
STURGEON BAY   CLOUDY    30  17  58 NW16      29.92R WCI  19
GREEN BAY      CLOUDY    31  17  56 NW23G31   29.95R WCI  18
MANITOWOC      CLOUDY    31  17  56 NW18G26   29.93R WCI  19
APPLETON       PTSUNNY   30  10  43 NW20G28   29.93R WCI  18
CLINTONVILLE   CLOUDY    30  10  43 NW17G25   29.96R WCI  18
OSHKOSH        CLOUDY    30  14  51 NW16G29   29.95R WCI  19
$$

WIZ032>034-041-042-053>061-212200-
SOUTHWEST WISCONSIN

CITY           SKY/WX    TMP DP  RH WIND       PRES   REMARKS
LA CROSSE      MOSUNNY   33  14  45 NW21G28   30.09R WCI  21
SPARTA         SUNNY     31  13  48 NW16      30.06R WCI  20
VIROQUA        MOSUNNY   29  16  57 NW17G23   30.04R WCI  17
BOSCOBEL       SUNNY     33  13  43 NW15G24   30.07R WCI  23
PRAIRIE DU CHI SUNNY     32  12  43 NW16G25   30.07R WCI  21
PLATTEVILLE    MOSUNNY   33  19  56 NW15G23   30.01R WCI  23
$$

WIZ056-057-062-063-064-067-068-212200-
SOUTH CENTRAL WISCONSIN

CITY           SKY/WX    TMP DP  RH WIND       PRES   REMARKS
REEDSBURG      PTSUNNY   29  13  52 NW14G24   30.02R WCI  18
BARABOO/DELLS  CLOUDY    30  12  46 NW22      30.00R WCI  17
LONE ROCK      NOT AVBL
MINERAL POINT  MOSUNNY   34  18  51 NW15G25   29.99R WCI  24
MADISON        MOSUNNY   33  15  47 NW15G28   29.99R WCI  23
MIDDLETON      MOSUNNY   35  17  47 NW21      29.98R WCI  24
WATERTOWN      CLOUDY    32  15  50 NW17G25   29.94R WCI  21
MONROE         CLOUDY    32  19  59 NW16G22   29.96R WCI  21
JANESVILLE     MOSUNNY   37  18  44 NW18G24   29.98R WCI  27
$$

WIZ051-052-058>065-066-070>072-212200-
SOUTHEAST WISCONSIN

CITY           SKY/WX    TMP DP  RH WIND       PRES   REMARKS
MILWAUKEE      CLOUDY    34  17  50 NW16      29.94R WCI  24
WAUKESHA       PTSUNNY   30  14  51 NW17G25   29.95R WCI  18
MILWAUKEE/TIMM CLOUDY    32  12  43 NW21G29   29.94R WCI  20
RACINE         PTSUNNY   34  16  47 NW12G26   29.96R WCI  25
BURLINGTON     MOSUNNY   37  22  55 NW20G25   29.94R WCI  26
KENOSHA        MOSUNNY   34  16  47 NW15G24   29.95R WCI  24
FOND DU LAC    CLOUDY    31  13  47 NW18G26   29.96R WCI  19
SHEBOYGAN      CLOUDY    32  16  51 NW15G28   29.93R WCI  22
WEST BEND      CLOUDY    30  18  59 NW20      29.93R WCI  18
JUNEAU         CLOUDY    29  15  54 NW14G24   29.96R WCI  19
$$

LSZ147-162-212200-
LAKE SUPERIOR

STATION/POSITION TIME  TEMP    WIND        PRES    WAVE
                       AIR SEA DIR/SP/G            HT/PER
                 (UTC) (F)     (DEG/KT/KT) (MB)    (FT/S)
DEVILS ISLAND    2000   23     290/ 22/ 26 1018.6R
SAXON HARBOR     2030   25     310/ 18/ 23 1017.6R
$$

LMZ867-665-643>646-212200-
LAKE MICHIGAN

STATION/POSITION TIME  TEMP    WIND        PRES    WAVE
                       AIR SEA DIR/SP/G            HT/PER
                 (UTC) (F)     (DEG/KT/KT) (MB)    (FT/S)
N MID LAKE BUOY  1950   33 47  310/ 25/ 31 1010.0R   6/ 6
NORTHPORT PIER   2044   31     320/ 22     1012.2R
KEWAUNEE LAKESHO 2030   32     310/ 14/ 19 1011.4R
SHEBOYGAN LAKESH 2000   33     290/ 17/ 20 1012.0R
PORT WASHINGTON  2030   34     300/ 12/ 22 1014.2R
MILWAUKEE LAKESH 2030   33     310/ 12/ 17   N/A
S MID LAKE BUOY  1950   38 48  340/ 23/ 29 1010.8R   6/ 5
KENOSHA   LAKESH 2000   34     320/ 16/ 21 1012.9
$$

TC  - TEMPERATURE IN CELSIUS
VSB - VISIBILITY IN STATUTE MILES
WCI - WIND CHILL INDEX
HX  - HEAT INDEX





USA.gov is the U.S. government's official web portal to all federal, state and local government web resources and services.